KC1IUC-15 Weather Reports


time (UTC)temp
F
wind
direction
speed
knots
gust
knots
rain 1hr
in
rain 24hr
in
rain mn
in
humidity
%
barometer
mb
20260510214504 61 165 0.9 2.6 0.01 0.34 0.12 84 1012.0
20260510214003 61 115 0.9 3.5 0.01 0.34 0.12 84 1011.6
20260510213503 61 104 0.9 3.5 0.01 0.35 0.12 87 1012.3
20260510213003 61 147 0.0 2.6 0.04 0.36 0.12 88 1012.3
20260510212503 61 108 0.9 3.5 0.11 0.37 0.12 89 1012.3
20260510212003 61 26 1.7 7.0 0.12 0.37 0.12 90 1012.0
20260510211503 62 2 0.9 7.0 0.12 0.38 0.12 90 1012.0
20260510211003 62 214 0.9 3.5 0.12 0.38 0.12 92 1012.3
20260510210503 62 249 0.9 2.6 0.11 0.38 0.11 91 1011.6
20260510210004 62 49 0.9 2.6 0.11 0.38 0.11 89 1011.6
20260510205503 62 71 0.9 4.3 0.11 0.39 0.11 89 1011.6
20260510205003 62 70 1.7 4.3 0.11 0.39 0.11 89 1011.3
20260510204503 62 72 1.7 5.2 0.11 0.40 0.11 86 1011.6
20260510204003 62 357 2.6 10.4 0.11 0.40 0.11 87 1011.6
20260510203504 63 279 3.5 10.4 0.11 0.41 0.11 81 1011.6
20260510203003 68 279 3.5 9.6 0.08 0.39 0.08 78 1012.0
20260510202503 70 296 1.7 8.7 0.01 0.33 0.01 68 1011.0
20260510202004 70 45 1.7 7.0 0.00 0.32 0.00 68 1010.6
20260510201503 70 38 2.6 7.0 0.00 0.33 0.00 66 1010.6
20260510201003 71 358 2.6 7.8 0.00 0.34 0.00 64 1011.0
20260510200503 69 351 2.6 7.8 0.00 0.34 0.00 65 1011.0
20260510200004 71 335 2.6 10.4 0.00 0.36 0.00 64 1011.3
20260510195503 71 271 2.6 10.4 0.00 0.37 0.00 64 1011.3
20260510195003 69 235 2.6 9.6 0.00 0.38 0.00 68 1011.3
20260510194503 70 246 3.5 8.7 0.00 0.39 0.00 66 1011.3
20260510194003 69 241 2.6 7.0 0.00 0.48 0.00 66 1011.6
20260510193503 70 26 2.6 8.7 0.00 0.54 0.00 68 1011.6
20260510193003 70 324 3.5 9.6 0.00 0.56 0.00 67 1011.3
20260510192503 70 266 2.6 9.6 0.00 0.57 0.00 66 1011.3
20260510192003 69 347 2.6 8.7 0.00 0.57 0.00 68 1011.3
20260510191504 70 356 2.6 7.8 0.00 0.58 0.00 66 1011.3
20260510191003 70 334 1.7 7.0 0.00 0.58 0.00 64 1011.3
20260510190503 70 296 2.6 10.4 0.00 0.59 0.00 64 1011.3
20260510190003 70 264 3.5 11.3 0.00 0.60 0.00 64 1011.3
20260510185503 70 263 3.5 11.3 0.00 0.61 0.00 63 1011.3
20260510185003 70 294 2.6 10.4 0.00 0.61 0.00 64 1011.6
20260510184503 70 307 2.6 8.7 0.00 0.62 0.00 65 1011.3
20260510184003 71 300 2.6 8.7 0.00 0.63 0.00 63 1011.6
20260510183503 71 273 2.6 8.7 0.00 0.64 0.00 63 1011.6
20260510183003 69 277 2.6 13.0 0.00 0.64 0.00 64 1011.3
20260510182503 70 343 3.5 13.0 0.00 0.65 0.00 64 1011.3
20260510182003 70 357 3.5 11.3 0.00 0.65 0.00 64 1011.6
20260510181503 70 318 2.6 11.3 0.00 0.65 0.00 65 1011.3
20260510181003 70 30 2.6 8.7 0.00 0.65 0.00 64 1011.6
20260510180503 70 354 2.6 6.1 0.00 0.65 0.00 65 1011.6
20260510180003 71 291 2.6 7.0 0.00 0.65 0.00 59 1012.0
20260510175503 70 296 2.6 8.7 0.00 0.65 0.00 62 1011.6
20260510175003 72 291 2.6 8.7 0.00 0.65 0.00 59 1011.6
20260510174503 71 284 2.6 7.0 0.00 0.65 0.00 63 1011.6
20260510174003 70 353 2.6 14.8 0.00 0.65 0.00 65 1011.6
20260510173503 68 13 2.6 14.8 0.00 0.65 0.00 67 1011.6
20260510173003 68 13 2.6 7.0 0.00 0.65 0.00 69 1011.6
20260510172503 69 20 2.6 8.7 0.00 0.65 0.00 68 1012.3
20260510172003 68 20 2.6 8.7 0.00 0.65 0.00 70 1011.6
20260510171503 67 5 3.5 9.6 0.00 0.65 0.00 70 1012.0
20260510171003 68 23 4.3 10.4 0.00 0.65 0.00 70 1012.0
20260510170503 68 33 3.5 10.4 0.00 0.65 0.00 71 1012.0
20260510170003 69 305 2.6 8.7 0.00 0.65 0.00 70 1012.0
20260510165503 68 278 3.5 8.7 0.00 0.65 0.00 68 1012.0
20260510165003 68 269 3.5 12.2 0.00 0.65 0.00 68 1012.0
20260510164503 68 343 3.5 12.2 0.00 0.65 0.00 69 1012.0
20260510164003 68 330 2.6 7.8 0.00 0.65 0.00 70 1012.0
20260510163503 68 322 2.6 10.4 0.00 0.65 0.00 67 1012.3
20260510163003 68 311 3.5 10.4 0.00 0.65 0.00 70 1012.3
20260510162503 68 264 3.5 10.4 0.00 0.65 0.00 69 1012.3
20260510162003 67 260 2.6 10.4 0.00 0.65 0.00 71 1012.3
20260510161503 68 311 2.6 7.8 0.00 0.65 0.00 69 1012.3
20260510161003 66 329 2.6 6.1 0.00 0.65 0.00 73 1012.3
20260510160503 66 21 2.6 9.6 0.00 0.65 0.00 74 1012.3
20260510160003 65 42 3.5 9.6 0.00 0.65 0.00 74 1012.3
20260510155503 65 41 2.6 9.6 0.00 0.65 0.00 75 1012.3
20260510155003 64 338 2.6 9.6 0.00 0.65 0.00 75 1012.7
20260510154503 64 296 3.5 9.6 0.00 0.65 0.00 72 1012.7
20260510154003 64 302 2.6 8.7 0.00 0.65 0.00 77 1013.0
20260510153503 64 238 2.6 8.7 0.00 0.65 0.00 76 1012.7
20260510153004 63 241 2.6 7.8 0.00 0.65 0.00 76 1013.3
20260510152503 62 264 2.6 7.0 0.00 0.65 0.00 78 1013.0
20260510152003 63 13 1.7 6.1 0.00 0.65 0.00 77 1013.0
20260510151503 62 51 1.7 5.2 0.00 0.65 0.00 78 1013.3
20260510151003 63 89 2.6 6.1 0.00 0.65 0.00 77 1013.0
20260510150503 63 12 2.6 6.1 0.00 0.65 0.00 77 1013.3
20260510150003 62 31 2.6 8.7 0.00 0.65 0.00 82 1013.3
20260510145503 62 26 2.6 8.7 0.00 0.65 0.00 81 1013.3
20260510145003 62 343 2.6 8.7 0.00 0.65 0.00 80 1013.0
20260510144503 62 349 2.6 6.1 0.00 0.65 0.00 78 1013.0
20260510144003 62 332 2.6 6.1 0.00 0.65 0.00 77 1013.0
20260510143503 60 247 1.7 8.7 0.00 0.65 0.00 82 1013.0
20260510143003 59 244 1.7 8.7 0.00 0.65 0.00 82 1013.3
20260510142503 60 281 1.7 6.1 0.00 0.65 0.00 82 1012.7
20260510142003 59 281 1.7 6.1 0.00 0.65 0.00 86 1013.3
20260510141503 58 261 1.7 5.2 0.00 0.65 0.00 84 1013.0
20260510141003 58 266 1.7 5.2 0.00 0.65 0.00 86 1013.0
20260510140503 58 288 1.7 4.3 0.00 0.65 0.00 87 1013.0
20260510140003 58 316 1.7 4.3 0.00 0.65 0.00 86 1013.0
20260510135503 58 72 1.7 3.5 0.00 0.65 0.00 87 1012.7
20260510135003 57 78 0.9 3.5 0.00 0.65 0.00 88 1012.7
20260510134503 57 47 1.7 6.1 0.00 0.65 0.00 89 1012.7
20260510134003 57 37 1.7 6.1 0.00 0.65 0.00 88 1013.0
20260510133503 57 244 0.9 5.2 0.00 0.65 0.00 88 1012.7
20260510133003 57 235 1.7 5.2 0.00 0.65 0.00 88 1013.0
20260510132503 57 13 1.7 5.2 0.00 0.65 0.00 88 1013.0
20260510132003 57 360 0.9 5.2 0.00 0.65 0.00 89 1013.0
20260510131503 57 30 0.9 5.2 0.00 0.65 0.00 89 1013.0
20260510131003 56 64 0.9 4.3 0.00 0.65 0.00 90 1013.0
20260510130503 56 257 0.9 4.3 0.00 0.65 0.00 90 1012.7
20260510130003 56 340 1.7 4.3 0.00 0.65 0.00 90 1013.0
20260510125503 56 359 0.9 4.3 0.00 0.65 0.00 92 1012.7
20260510125003 55 33 1.7 4.3 0.00 0.65 0.00 92 1013.0
20260510124503 55 38 1.7 4.3 0.00 0.65 0.00 93 1013.0
20260510124003 54 51 0.9 4.3 0.00 0.65 0.00 95 1013.0
20260510123503 54 222 0.9 4.3 0.00 0.65 0.00 97 1013.0
20260510123003 54 243 0.9 3.5 0.00 0.66 0.00 98 1013.0
20260510122503 54 23 0.9 3.5 0.00 0.66 0.00 98 1012.7
20260510122003 53 35 0.9 4.3 0.00 0.66 0.00 99 1012.7
20260510121503 53 45 0.9 4.3 0.00 0.66 0.00 99 1012.3
20260510121003 53 10 0.9 4.3 0.00 0.66 0.00 99 1012.7
20260510120503 53 4 0.9 4.3 0.00 0.66 0.00 99 1012.7
20260510120003 52 38 0.9 2.6 0.00 0.67 0.00 99 1012.7
20260510115504 52 127 0.0 2.6 0.00 0.67 0.00 99 1012.3
20260510115003 53 230 0.9 2.6 0.00 0.67 0.00 99 1012.3
20260510114503 53 246 0.0 2.6 0.00 0.67 0.00 99 1012.3
20260510114003 53 226 0.0 1.7 0.00 0.67 0.00 99 1012.3
20260510113503 53 280 0.0 1.7 0.00 0.67 0.00 99 1012.3
20260510113003 52 310 0.9 2.6 0.00 0.67 0.00 99 1012.0
20260510112503 52 1 0.9 2.6 0.00 0.67 0.00 99 1012.3
20260510112003 52 23 0.0 2.6 0.00 0.67 0.00 99 1012.3
20260510111503 52 202 0.0 2.6 0.00 0.67 0.00 99 1012.3
20260510111003 52 174 0.0 2.6 0.00 0.67 0.00 99 1012.0
20260510110503 52 175 0.0 2.6 0.00 0.67 0.00 99 1012.3
20260510110003 52 163 0.9 4.3 0.00 0.67 0.00 99 1012.0
20260510105503 52 252 0.9 4.3 0.00 0.67 0.00 99 1012.3
20260510105003 52 279 0.9 2.6 0.00 0.67 0.00 99 1012.0
20260510104503 52 249 0.9 2.6 0.00 0.67 0.00 99 1012.0
20260510104003 52 220 0.9 3.5 0.00 0.67 0.00 99 1011.6
20260510103503 52 208 0.9 4.3 0.00 0.67 0.00 99 1011.6
20260510103003 52 209 0.9 4.3 0.00 0.67 0.00 99 1012.0
20260510102503 52 214 0.9 4.3 0.00 0.67 0.00 99 1011.6
20260510102003 52 196 0.9 4.3 0.00 0.67 0.00 99 1011.6
20260510101503 52 98 0.9 3.5 0.00 0.67 0.00 99 1011.6
20260510101003 52 122 0.9 3.5 0.00 0.67 0.00 99 1012.0
20260510100503 52 221 0.0 3.5 0.00 0.67 0.00 99 1012.0
20260510100003 52 211 0.9 5.2 0.00 0.67 0.00 99 1012.0
20260510095503 51 232 0.9 5.2 0.00 0.67 0.00 99 1012.0
20260510095003 51 242 0.0 3.5 0.00 0.67 0.00 99 1012.0
20260510094503 51 207 0.0 1.7 0.00 0.67 0.00 99 1012.3
20260510094003 51 247 0.0 3.5 0.00 0.67 0.00 99 1012.0
20260510093503 51 229 0.9 4.3 0.00 0.67 0.00 99 1012.0
20260510093003 52 213 0.9 4.3 0.00 0.67 0.00 99 1012.0
20260510092503 52 192 0.9 4.3 0.00 0.67 0.00 99 1011.6
20260510092003 52 121 0.0 2.6 0.00 0.67 0.00 99 1012.3
20260510091503 52 163 0.0 2.6 0.00 0.67 0.00 99 1012.0
20260510091003 52 166 0.9 4.3 0.00 0.68 0.00 99 1012.0
20260510090503 52 151 0.9 4.3 0.00 0.68 0.00 99 1012.0
20260510090004 52 189 0.0 1.7 0.00 0.68 0.00 99 1012.3
20260510085503 52 222 0.0 1.7 0.00 0.68 0.00 99 1012.3
20260510085003 52 253 0.0 1.7 0.00 0.68 0.00 99 1012.3
20260510084503 52 252 0.0 1.7 0.00 0.68 0.00 99 1012.3
20260510084003 52 187 0.0 1.7 0.00 0.68 0.00 99 1012.0
20260510083503 52 183 0.0 2.6 0.00 0.69 0.00 99 1012.0
20260510083003 52 162 0.0 2.6 0.00 0.69 0.00 99 1012.3
20260510082503 52 136 0.0 1.7 0.00 0.69 0.00 99 1012.0
20260510082003 52 303 0.0 1.7 0.00 0.70 0.00 99 1012.0
20260510081503 52 157 0.0 2.6 0.00 0.70 0.00 99 1011.6
20260510081003 52 149 0.0 2.6 0.00 0.70 0.00 99 1011.6
20260510080503 52 270 0.0 1.7 0.00 0.70 0.00 99 1011.6
20260510080004 52 79 0.0 2.6 0.00 0.70 0.00 99 1011.6
20260510075503 52 114 0.0 2.6 0.00 0.70 0.00 99 1011.6
20260510075003 52 251 0.0 1.7 0.00 0.70 0.00 99 1011.3
20260510074503 53 190 0.0 2.6 0.00 0.70 0.00 99 1011.6
20260510074003 53 129 0.0 2.6 0.00 0.70 0.00 99 1011.3
20260510073503 53 117 0.0 2.6 0.00 0.70 0.00 99 1011.3
20260510073003 53 207 0.0 1.7 0.00 0.70 0.00 99 1011.6
20260510072503 53 168 0.0 1.7 0.00 0.70 0.00 99 1011.6
20260510072003 53 101 0.9 2.6 0.00 0.70 0.00 99 1011.6
20260510071503 53 84 0.9 2.6 0.00 0.70 0.00 99 1011.6
20260510071003 53 207 0.0 2.6 0.00 0.70 0.00 99 1011.6
20260510070503 53 293 0.9 2.6 0.00 0.70 0.00 99 1011.6
20260510070004 53 318 0.9 2.6 0.00 0.70 0.00 99 1011.6
20260510065503 53 288 0.9 2.6 0.00 0.70 0.00 99 1011.6
20260510065003 53 251 0.9 2.6 0.00 0.70 0.00 99 1011.6
20260510064503 53 224 0.0 2.6 0.00 0.70 0.00 99 1011.3
20260510064003 53 174 0.0 1.7 0.00 0.70 0.00 99 1011.6
20260510063503 53 193 0.0 1.7 0.00 0.70 0.00 99 1011.3
20260510063003 53 263 0.0 1.7 0.00 0.70 0.00 99 1011.6
20260510062503 53 203 0.0 2.6 0.00 0.70 0.00 99 1011.3
20260510062003 53 128 0.0 2.6 0.00 0.70 0.00 99 1011.3
20260510061503 53 111 0.0 1.7 0.00 0.70 0.00 99 1011.0
20260510061003 53 148 0.0 2.6 0.00 0.70 0.00 99 1011.0
20260510060503 53 166 0.0 2.6 0.00 0.70 0.00 99 1011.0
20260510060003 53 117 0.0 2.6 0.00 0.70 0.00 99 1011.0
20260510055503 53 127 0.9 2.6 0.00 0.70 0.00 99 1011.0
20260510055003 53 238 0.0 2.6 0.00 0.70 0.00 99 1011.3
20260510054503 53 227 0.9 4.3 0.00 0.70 0.00 99 1011.3
20260510054003 53 236 0.9 4.3 0.00 0.70 0.00 99 1011.3
20260510053503 53 4 0.0 2.6 0.00 0.70 0.00 99 1011.6
20260510053003 53 25 0.0 2.6 0.00 0.70 0.00 99 1011.6
20260510052503 53 51 0.0 2.6 0.00 0.70 0.00 99 1011.3
20260510052003 53 28 0.0 2.6 0.00 0.70 0.00 99 1011.3
20260510051503 53 247 0.0 2.6 0.00 0.70 0.00 99 1011.6
20260510051003 53 232 0.0 2.6 0.00 0.70 0.00 99 1011.6
20260510050503 53 208 0.0 2.6 0.00 0.70 0.00 99 1011.3
20260510050003 53 235 0.0 2.6 0.00 0.70 0.00 99 1011.3
20260510045503 53 232 0.0 2.6 0.00 0.70 0.00 99 1011.3
20260510045003 53 71 0.0 2.6 0.00 0.70 0.00 98 1011.3
20260510044503 53 59 0.0 2.6 0.00 0.70 0.00 99 1011.3
20260510044003 53 114 0.0 1.7 0.00 0.70 0.00 99 1011.3
20260510043503 53 202 0.9 2.6 0.00 0.70 0.00 98 1011.6
20260510043003 53 261 0.9 2.6 0.00 0.70 0.00 99 1011.3
20260510042503 53 310 0.0 2.6 0.00 0.70 0.00 99 1011.3
20260510042003 53 198 0.0 1.7 0.00 0.70 0.00 99 1011.3
20260510041503 53 232 0.0 2.6 0.00 0.70 0.00 98 1011.3
20260510041003 53 258 0.0 2.6 0.00 0.70 0.00 99 1011.3
20260510040503 54 335 0.0 2.6 0.00 0.70 0.00 98 1011.3
20260510040004 53 60 0.9 2.6 0.00 0.70 0.00 98 1011.0
20260510035503 53 81 0.9 2.6 0.00 0.70 0.70 99 1011.3
20260510035003 53 51 0.9 3.5 0.00 0.70 0.70 99 1011.0
20260510034503 54 44 0.9 3.5 0.00 0.70 0.70 99 1011.0
20260510034003 54 92 1.7 4.3 0.00 0.70 0.70 99 1011.0
20260510033503 53 214 0.9 4.3 0.00 0.70 0.70 99 1011.3
20260510033003 53 178 0.9 3.5 0.00 0.70 0.70 99 1011.3
20260510032503 54 130 0.9 3.5 0.00 0.70 0.70 98 1011.3
20260510032003 54 106 0.9 3.5 0.00 0.70 0.70 99 1011.3
20260510031503 54 70 0.0 2.6 0.00 0.70 0.70 98 1011.0
20260510031003 54 245 0.0 1.7 0.00 0.70 0.70 98 1011.3
20260510030503 54 249 0.0 2.6 0.00 0.70 0.70 98 1011.3
20260510030003 54 156 0.0 2.6 0.00 0.70 0.70 98 1011.6
20260510025503 54 170 0.9 3.5 0.00 0.70 0.70 98 1011.3
20260510025003 54 177 0.9 3.5 0.00 0.70 0.70 98 1011.0
20260510024503 54 173 0.9 3.5 0.00 0.70 0.70 98 1011.3
20260510024003 54 184 0.9 3.5 0.00 0.70 0.70 98 1011.3
20260510023503 54 279 0.0 2.6 0.00 0.70 0.70 98 1011.3
20260510023003 54 8 0.9 2.6 0.00 0.70 0.70 98 1011.3
20260510022504 54 52 0.9 2.6 0.00 0.70 0.70 98 1011.3
20260510022003 54 300 0.9 2.6 0.00 0.70 0.70 98 1011.0
20260510021503 54 308 0.0 1.7 0.00 0.70 0.70 98 1011.3
20260510021003 54 41 0.0 1.7 0.00 0.70 0.70 98 1011.3
20260510020503 54 107 0.0 1.7 0.00 0.70 0.70 98 1011.3
20260510020004 54 107 0.0 1.7 0.00 0.70 0.70 98 1011.6
20260510015503 54 309 0.0 2.6 0.00 0.70 0.70 98 1011.6
20260510015003 54 335 0.9 3.5 0.00 0.70 0.70 98 1011.3
20260510014503 54 19 0.9 3.5 0.00 0.70 0.70 98 1011.3
20260510014003 54 183 0.9 3.5 0.00 0.70 0.70 98 1011.0
20260510013503 54 223 0.9 3.5 0.00 0.70 0.70 98 1011.3
20260510013003 53 259 0.9 3.5 0.00 0.70 0.70 98 1011.3
20260510012503 54 283 0.9 4.3 0.00 0.70 0.70 98 1011.3
20260510012003 53 281 0.9 4.3 0.00 0.70 0.70 98 1011.3
20260510011503 54 270 0.9 3.5 0.00 0.70 0.70 98 1011.3
20260510011003 54 223 0.9 4.3 0.00 0.70 0.70 98 1011.0
20260510010503 54 221 1.7 6.1 0.00 0.70 0.70 98 1011.0
20260510010003 54 296 1.7 6.1 0.00 0.70 0.70 98 1011.3
20260510005503 54 227 1.7 7.0 0.00 0.70 0.70 98 1011.3
20260510005003 54 216 2.6 8.7 0.00 0.70 0.70 98 1011.3
20260510004503 54 217 2.6 8.7 0.00 0.70 0.70 98 1010.6
20260510004003 54 230 1.7 5.2 0.00 0.70 0.70 98 1011.0
20260510003503 54 227 1.7 5.2 0.01 0.70 0.70 98 1010.6
20260510003004 54 226 0.9 4.3 0.01 0.70 0.70 98 1010.6
20260510002503 54 344 0.9 4.3 0.01 0.70 0.70 98 1010.6
20260510002003 54 243 1.7 4.3 0.01 0.70 0.70 98 1011.0
20260510001503 54 234 0.9 5.2 0.02 0.70 0.70 98 1010.6
20260510001003 54 356 0.9 5.2 0.03 0.70 0.70 98 1010.6
20260510000503 54 353 0.9 4.3 0.04 0.70 0.70 98 1010.6
20260510000003 54 346 0.0 3.5 0.05 0.70 0.70 98 1010.6
20260509235503 54 238 0.0 2.6 0.06 0.70 0.70 98 1010.6
20260509235003 54 254 0.0 3.5 0.06 0.70 0.70 98 1010.6
20260509234503 54 250 0.9 5.2 0.07 0.70 0.70 98 1010.6
20260509234003 54 257 0.9 5.2 0.07 0.70 0.70 98 1010.6
20260509233503 54 249 0.9 7.0 0.07 0.69 0.69 98 1010.3
20260509233003 54 253 0.9 7.0 0.09 0.69 0.69 98 1010.6
20260509232503 55 259 0.9 7.8 0.09 0.69 0.69 98 1010.6
20260509232003 55 30 0.9 7.8 0.10 0.69 0.69 98 1010.6
20260509231503 55 19 0.9 5.2 0.09 0.68 0.68 98 1011.0
20260509231003 54 263 0.0 3.5 0.10 0.67 0.67 98 1011.0
20260509230503 54 249 0.0 3.5 0.10 0.66 0.66 98 1011.0
20260509230003 54 312 0.9 3.5 0.11 0.65 0.65 98 1011.3
20260509225503 55 287 0.9 3.5 0.12 0.64 0.64 98 1011.6
20260509225003 55 265 0.0 3.5 0.15 0.64 0.64 98 1011.6
20260509224503 55 212 0.0 1.7 0.15 0.63 0.63 98 1011.3
20260509224004 55 0 0.0 0.0 0.15 0.63 0.63 98 1011.3
20260509223503 55 0 0.0 0.0 0.15 0.62 0.62 97 1011.3
20260509223003 55 224 0.0 1.7 0.14 0.60 0.60 97 1011.3
20260509222503 55 216 0.0 1.7 0.15 0.60 0.60 97 1011.6
20260509222003 55 260 0.9 4.3 0.14 0.59 0.59 97 1011.6
20260509221503 55 286 0.9 4.3 0.15 0.59 0.59 97 1011.6
20260509221003 55 30 0.0 2.6 0.13 0.57 0.57 97 1011.6
20260509220503 55 62 0.0 2.6 0.13 0.56 0.56 97 1011.6
20260509220003 55 160 0.0 1.7 0.11 0.54 0.54 97 1011.6
20260509215503 55 0 0.0 0.0 0.10 0.52 0.52 97 1011.6
20260509215003 55 283 0.0 1.7 0.07 0.49 0.49 97 1011.6